Погода в Кишиневе

Погода в Кишиневе : погода сейчас, прогноз погоды и архив. Всё, что Вы хотите узнать о погоде в Кишиневе!

Хотите узнать прогноз погоды в Кишинёве? Тогда Вам сюда: Погода в Кишинёве

Поиск расширенной информации на нашем сайте:

Другие новости

Новости СМИ2

Главная страница сайта

Новости сайта

03.07.2017

Напоминаем, что на нашем специализированном сайте Метеоцентр.Азия вы можете получить высокодетализированные автоматические прогнозы погоды по пунктам России, СНГ и мира в авиационном формате (включающие направление и скорость ветра, видимость, явления погоды, количество и форму облачности, нижнюю и верхнюю границу облачности).


Погода в Кишиневе - сегодня

Время (UTC), дата Ветер
(°,м/с) 
Видим.   Явления Облачность Т
(°С)
Тd
(°С)
f(%) Тe
(°С)
Pmin
(гПа)
dP
(гПа)
Po
(мм)
O2
(г/м3)
Тmin Tmax R s Состояние
почвы
06 18.07.18 280 (З) 20000 м    3/3 420 м средняя, верхняя 
[Ac trans|Cc]
+22.2 +16.2 69 +34  1002.2  0.4  737  271  +17.1         
09 18.07.18 310 (СЗ) 20000 м    9/9 600 м 
[Cu med, cong]
+25.6 +15.6 54 +36  1001.1  -0.9  737  268           
12 18.07.18 340 (С) 20000 м  гроза, ливневой дождь  10/9 600 м кучево-дожд., средняя 
[Cb calv|Ac trans]
+23.2 +16 64 +34  1001.2  -0.1  736  270           
15 18.07.18 тихо ()   20000 м  {гроза}  9/3 600 м средняя, верхняя 
[Cu med, cong|Ac As|Ci fib]
+24.6 +15.8 58 +35  1000.9  -0.2  736  269           
18 18.07.18 110 (В) 20000 м  {гроза}  10/10 600 м кучево-дожд. 
[Cb calv]
+23.2 +15 60 +32  1001.3  0.3  737  270    +2.6     
21 18.07.18 270 (З) 20000 м  гроза, ливневой дождь  10/10 600 м кучево-дожд. 
[Cb calv]
+18 +17.2 95 +32  1002.6  737  275           
00 19.07.18 300 (СЗ) 20000 м  {гроза, ливн. осадки}  10/10 600 м кучево-дожд. 
[Cb calv]
+17.8 +16.7 93 +30  1001.2  -1.4  736  275           
03 19.07.18 тихо ()   20000 м    6/0 средняя 
[Ac trans]
+17.2 +16.4 95 +29  1001.1  -0.1  736  275  +17.2         
06 19.07.18 100 (В) 4000 м  дымка  10/10 600 м кучево-дожд. 
[Cb calv]
+18.7 +17.5 93 +34  1002  737  274  +1.7    32     
09 19.07.18 010 (С) 20000 м    8/8 600 м кучево-дожд. 
[Cb calv]
+22.6 +17.1 71 +36  1002.5  0.7  737  271           
12 19.07.18 320 (СЗ) 20000 м    8/8 600 м 
[Cu med, cong]
+25.7 +16 55 +37  1002.2  -0.1  737  268           
15 19.07.18 300 (СЗ) 20000 м    8/5 600 м средняя, верхняя 
[Cu hum|Ac trans|Ci fib]
+27.6 +16.3 50 +39  1002.2  0.1  737  266           
18 19.07.18 330 (СЗ) 20000 м    10/5 400 м кучево-дожд., средняя, верхняя 
[Cb calv|Ac trans|Ci fib]
+23.3 +16.8 67 +36  1003.5  738  270    +28.1       
21 19.07.18 290 (З) 20000 м    4/0 средняя, верхняя 
[Ac trans|Ci fib]
+21.6 +19.3 87 +39  1004.3  0.7  739  271           
00 20.07.18 330 (СЗ) 20000 м    3/0 верхняя 
[Ci fib]
+20.2 +17.4 84 +34  1004.5  0.1  739  273           
03 20.07.18 330 (СЗ) 20000 м    6/0 средняя 
[Ac trans]
+19.7 +17.5 87 +34  1005.1  0.6  739  274           
06 20.07.18 320 (СЗ) 20000 м    8/3 330 м средняя, верхняя 
[Cu hum|Ac trans|Ci fib]
+22.1 +17.5 75 +36  1005.9  0.9  740  272  +19.5         
09 20.07.18 300 (СЗ) 20000 м    6/3 600 м верхняя 
[Cu hum|Ci fib]
+24.9 +17.9 65 +39  1006.1  0.4  740  269           
12 20.07.18 310 (СЗ) 20000 м    8/5 600 м средняя, верхняя 
[Cu med, cong|Ac trans|Ci fib]
+26.8 +17 55 +40  1005.7  -0.3  740  268           
15 20.07.18 300 (СЗ) 20000 м    10/3 600 м средняя, верхняя 
[Cu hum|Ac trans|Ci fib]
+27.2 +15.6 49 +37  1005.3  -0.4  740  268           
18 20.07.18 290 (З) 20000 м    10/1 600 м средняя, верхняя 
[Cu hum|Ac trans|Ci fib]
+24 +15.5 59 +34  1006.6  1.1  740  271    +27.8       
21 20.07.18 300 (СЗ) 20000 м    8/0 средняя, верхняя 
[Ac trans|Ci fib]
+22.1 +15.7 67 +32  1007.4  0.7  741  273           
00 21.07.18 320 (СЗ) 20000 м    4/0 средняя 
[Ac trans]
+21.1 +16.3 74 +32  1007.7  0.2  741  274           
03 21.07.18 320 (СЗ) 20000 м    4/0 средняя, верхняя 
[Ac trans|Ci fib]
+19.7 +16.4 81 +32  1008.3  0.5  742  275  +19.6         
06 21.07.18 310 (СЗ) 20000 м    4/3 360 м средняя 
[Cu hum|Ac lent]
+22 +17.4 75 +35  1009  0.8  742  273  +19.6         
Время (UTC), дата Ветер
(°,м/с) 
Видим.   Явления Облачность Т
(°С)
Тd
(°С)
f(%) Тe
(°С)
Pmin
(гПа)
dP
(гПа)
Po
(мм)
O2
(г/м3)
Тmin Tmax R s Состояние
почвы

Для получения пояснительной информации подведите курсор к названию столбца.

ПОГОДА в Кишиневе - архив

Всё, что Вы хотите узнать о погоде в Кишиневе - удобно и подробно!

Выберите нужную дату (начиная с 1 января 2015* года) и нажмите кнопку "Найти".
Будут отображены архивные сводки погоды по пункту Кишинев, начиная с указанной даты.


Отображать данные в формате CSV (для использования в таблицах Excel)


Внимание! Наш архив погоды предназначен исключительно для личного некоммерческого использования в познавательных целях. Если Вам необходимы официальные справки о состоянии погоды (для производственных, юридических, коммерческих и т.п. целей), обращайтесь в органы Росгидромета.

*Примечание: данная дата относится к архиву по метеостанциям СССР (Россия, СНГ, Балтия).
Архив по метеостанциям Зарубежной Европы и Азии (кроме Китая) хранится 10 дней, по другим регионам земного шара (Китай, Африка, Америка, Австралия, Океания) - 1 день.

Кишинев - район местоположения метеостанции


Название, широта, долгота, высота метеостанции:
Кишинев 47°ш. 29°д. 173 м над ур. моря [Молдавия]

Дополнительная информация

В oтличие oт бoльшинства пoгoдных сайтoв мы публикуем пoдрoбную метеoинфoрмацию в детальнoм прoфессиoнальнoм фoрмате.

Характеристики температуры и влажнoсти вoздуха измеряются на высoте 2 м в тени вдали oт зданий и деревьев.
Скoрoсть ветра измеряется на высoте 10 м (на урoвне рoста челoвека скoрoсть ветра ниже в 1.5-2 раза). Если метеoстанция нахoдится в гoрoде или в лесу, тo скoрoсть ветра занижена на 2-4 м/с пo сравнению с oткрытым местoм. Скoрoсть ветра над акватoриями крупных рек и oзёр, а также на вершинах хoлмoв на 2-5 м/с выше, чем в oбычных услoвиях.
Атмoсфернoе давление в разных тoчках местнoсти мoжет значительнo oтличаться oт давления на метеoстанции, в зависимoсти oт услoвий рельефа (при пoдъёме на 10 м давление пoнижается примернo на 1 мм рт.ст.).